Time,TemperatureF,DewpointF,PressureIn,WindDirection,WindDirectionDegrees,WindSpeedMPH,WindSpeedGustMPH,Humidity,HourlyPrecipIn,Conditions,Clouds,dailyrainin,SoftwareType,DateUTC
2013-03-15 00:00:00,20.9,10.6,29.86,NNW,339,2.0,5.0,64,0.00,,,0.00,Wunderground v.1.13,2013-03-15 04:00:00,
2013-03-15 00:05:00,20.9,10.6,29.86,NNW,346,2.0,2.0,64,0.00,,,0.00,Wunderground v.1.13,2013-03-15 04:05:00,
2013-03-15 00:10:00,20.9,10.6,29.86,WNW,291,1.0,5.0,64,0.00,,,0.00,Wunderground v.1.13,2013-03-15 04:10:00,
2013-03-15 00:15:00,20.8,10.9,29.86,NNW,329,2.0,2.0,65,0.00,,,0.00,Wunderground v.1.13,2013-03-15 04:15:00,
2013-03-15 00:20:00,20.8,10.9,29.86,WSW,254,2.0,5.0,65,0.00,,,0.00,Wunderground v.1.13,2013-03-15 04:20:00,
2013-03-15 00:25:00,20.7,11.1,29.86,NNW,345,2.0,5.0,66,0.00,,,0.00,Wunderground v.1.13,2013-03-15 04:25:00,
2013-03-15 00:30:00,20.7,11.1,29.86,NNW,327,1.0,1.0,66,0.00,,,0.00,Wunderground v.1.13,2013-03-15 04:30:00,
2013-03-15 00:40:00,20.7,11.5,29.86,NNW,348,1.0,5.0,67,0.00,,,0.00,Wunderground v.1.13,2013-03-15 04:40:00,
2013-03-15 00:45:00,20.6,11.7,29.85,SSW,205,1.0,1.0,68,0.00,,,0.00,Wunderground v.1.13,2013-03-15 04:45:00,
2013-03-15 00:50:00,20.6,11.4,29.85,NNW,345,1.0,5.0,67,0.00,,,0.00,Wunderground v.1.13,2013-03-15 04:50:00,
2013-03-15 01:00:00,20.5,11.6,29.86,NNW,330,1.0,1.0,68,0.00,,,0.00,Wunderground v.1.13,2013-03-15 05:00:00,
2013-03-15 01:05:00,20.4,11.5,29.86,NNW,338,1.0,6.0,68,0.00,,,0.00,Wunderground v.1.13,2013-03-15 05:05:00,
2013-03-15 01:15:00,20.4,11.8,29.86,North,355,1.0,1.0,69,0.00,,,0.00,Wunderground v.1.13,2013-03-15 05:15:00,
2013-03-15 01:20:00,20.4,11.8,29.86,NNW,335,1.0,1.0,69,0.00,,,0.00,Wunderground v.1.13,2013-03-15 05:20:00,
2013-03-15 01:30:00,20.3,12.1,29.86,NNW,338,1.0,1.0,70,0.00,,,0.00,Wunderground v.1.13,2013-03-15 05:30:00,
2013-03-15 01:35:00,20.3,12.1,29.86,NNW,341,1.0,2.0,70,0.00,,,0.00,Wunderground v.1.13,2013-03-15 05:35:00,
2013-03-15 01:40:00,20.3,12.1,29.86,NNW,343,1.0,1.0,70,0.00,,,0.00,Wunderground v.1.13,2013-03-15 05:40:00,
2013-03-15 01:45:00,20.3,12.4,29.86,North,349,1.0,1.0,71,0.00,,,0.00,Wunderground v.1.13,2013-03-15 05:45:00,
2013-03-15 01:55:00,20.3,12.4,29.86,North,351,1.0,1.0,71,0.00,,,0.00,Wunderground v.1.13,2013-03-15 05:55:00,
2013-03-15 02:00:00,20.4,12.5,29.86,North,351,1.0,1.0,71,0.00,,,0.00,Wunderground v.1.13,2013-03-15 06:00:00,
2013-03-15 02:05:00,20.5,12.6,29.86,North,350,1.0,1.0,71,0.00,,,0.00,Wunderground v.1.13,2013-03-15 06:05:00,
2013-03-15 02:15:00,20.6,12.4,29.86,North,351,0.0,6.0,70,0.00,,,0.00,Wunderground v.1.13,2013-03-15 06:15:00,
2013-03-15 02:20:00,20.7,12.5,29.87,North,350,0.0,6.0,70,0.00,,,0.00,Wunderground v.1.13,2013-03-15 06:20:00,
2013-03-15 02:25:00,20.7,12.5,29.86,North,351,0.0,6.0,70,0.00,,,0.00,Wunderground v.1.13,2013-03-15 06:25:00,
2013-03-15 02:35:00,20.8,12.2,29.86,NW,317,1.0,6.0,69,0.00,,,0.00,Wunderground v.1.13,2013-03-15 06:35:00,
2013-03-15 02:40:00,20.9,12.3,29.86,NNW,346,1.0,6.0,69,0.00,,,0.00,Wunderground v.1.13,2013-03-15 06:40:00,
2013-03-15 02:45:00,20.8,11.9,29.86,NNW,338,2.0,2.0,68,0.00,,,0.00,Wunderground v.1.13,2013-03-15 06:45:00,
2013-03-15 02:55:00,20.7,11.8,29.86,NNW,345,0.0,6.0,68,0.00,,,0.00,Wunderground v.1.13,2013-03-15 06:55:00,
2013-03-15 03:00:00,20.7,11.8,29.86,NNW,328,1.0,6.0,68,0.00,,,0.00,Wunderground v.1.13,2013-03-15 07:00:00,
2013-03-15 03:05:00,20.6,11.7,29.86,NNW,331,2.0,2.0,68,0.00,,,0.00,Wunderground v.1.13,2013-03-15 07:05:00,
2013-03-15 03:15:00,20.5,11.6,29.86,NNW,334,1.0,1.0,68,0.00,,,0.00,Wunderground v.1.13,2013-03-15 07:15:00,
2013-03-15 03:20:00,20.5,11.6,29.86,North,355,1.0,6.0,68,0.00,,,0.00,Wunderground v.1.13,2013-03-15 07:20:00,
2013-03-15 03:25:00,20.5,11.6,29.86,NNW,342,1.0,6.0,68,0.00,,,0.00,Wunderground v.1.13,2013-03-15 07:25:00,
2013-03-15 03:35:00,20.3,11.4,29.85,NNW,346,2.0,6.0,68,0.00,,,0.00,Wunderground v.1.13,2013-03-15 07:35:00,
2013-03-15 03:40:00,20.3,11.4,29.85,NW,315,2.0,2.0,68,0.00,,,0.00,Wunderground v.1.13,2013-03-15 07:40:00,
2013-03-15 03:45:00,20.2,11.3,29.85,NNW,344,2.0,2.0,68,0.00,,,0.00,Wunderground v.1.13,2013-03-15 07:45:00,
2013-03-15 03:55:00,20.1,11.6,29.85,NNW,340,2.0,2.0,69,0.00,,,0.00,Wunderground v.1.13,2013-03-15 07:55:00,
2013-03-15 04:00:00,20.1,11.6,29.86,NNW,338,2.0,2.0,69,0.00,,,0.00,Wunderground v.1.13,2013-03-15 08:00:00,
2013-03-15 04:05:00,20.1,11.6,29.85,NNW,338,1.0,1.0,69,0.00,,,0.00,Wunderground v.1.13,2013-03-15 08:05:00,
2013-03-15 04:15:00,19.9,11.4,29.86,North,355,1.0,1.0,69,0.00,,,0.00,Wunderground v.1.13,2013-03-15 08:15:00,
2013-03-15 04:20:00,19.9,11.7,29.86,West,277,2.0,11.0,70,0.00,,,0.00,Wunderground v.1.13,2013-03-15 08:20:00,
2013-03-15 04:25:00,19.8,11.3,29.86,NNW,346,3.0,3.0,69,0.00,,,0.00,Wunderground v.1.13,2013-03-15 08:25:00,
2013-03-15 04:35:00,19.7,11.5,29.86,North,349,1.0,6.0,70,0.00,,,0.00,Wunderground v.1.13,2013-03-15 08:35:00,
2013-03-15 04:40:00,19.7,11.5,29.86,North,351,0.0,6.0,70,0.00,,,0.00,Wunderground v.1.13,2013-03-15 08:40:00,
2013-03-15 04:45:00,19.5,11.0,29.87,North,355,1.0,6.0,69,0.00,,,0.00,Wunderground v.1.13,2013-03-15 08:45:00,
2013-03-15 04:55:00,19.4,10.9,29.86,NW,310,0.0,6.0,69,0.00,,,0.00,Wunderground v.1.13,2013-03-15 08:55:00,
2013-03-15 05:00:00,19.3,10.8,29.87,NNW,338,0.0,6.0,69,0.00,,,0.00,Wunderground v.1.13,2013-03-15 09:00:00,
2013-03-15 05:05:00,19.2,10.4,29.87,NNW,327,1.0,6.0,68,0.00,,,0.00,Wunderground v.1.13,2013-03-15 09:05:00,
2013-03-15 05:15:00,19.0,9.8,29.87,NNW,340,1.0,1.0,67,0.00,,,0.00,Wunderground v.1.13,2013-03-15 09:15:00,
2013-03-15 05:20:00,19.0,9.8,29.87,NNW,346,1.0,6.0,67,0.00,,,0.00,Wunderground v.1.13,2013-03-15 09:20:00,
2013-03-15 05:25:00,18.9,9.7,29.87,NNW,337,1.0,1.0,67,0.00,,,0.00,Wunderground v.1.13,2013-03-15 09:25:00,
2013-03-15 05:35:00,18.9,10.1,29.87,NNW,344,1.0,1.0,68,0.00,,,0.00,Wunderground v.1.13,2013-03-15 09:35:00,
2013-03-15 05:40:00,18.8,10.0,29.88,NNW,340,1.0,6.0,68,0.00,,,0.00,Wunderground v.1.13,2013-03-15 09:40:00,
2013-03-15 05:45:00,18.8,10.0,29.87,NNW,334,1.0,1.0,68,0.00,,,0.00,Wunderground v.1.13,2013-03-15 09:45:00,
2013-03-15 05:55:00,18.6,9.8,29.88,North,355,1.0,1.0,68,0.00,,,0.00,Wunderground v.1.13,2013-03-15 09:55:00,
2013-03-15 06:00:00,18.6,9.8,29.88,North,350,1.0,1.0,68,0.00,,,0.00,Wunderground v.1.13,2013-03-15 10:00:00,
2013-03-15 06:05:00,18.5,9.7,29.88,North,355,1.0,6.0,68,0.00,,,0.00,Wunderground v.1.13,2013-03-15 10:05:00,
2013-03-15 06:10:00,18.4,9.6,29.88,North,355,1.0,1.0,68,0.00,,,0.00,Wunderground v.1.13,2013-03-15 10:10:00,
2013-03-15 06:20:00,18.3,9.5,29.88,North,355,1.0,1.0,68,0.00,,,0.00,Wunderground v.1.13,2013-03-15 10:20:00,
2013-03-15 06:25:00,18.3,9.5,29.88,North,355,1.0,1.0,68,0.00,,,0.00,Wunderground v.1.13,2013-03-15 10:25:00,
2013-03-15 06:30:00,18.2,9.4,29.89,NNW,341,1.0,6.0,68,0.00,,,0.00,Wunderground v.1.13,2013-03-15 10:30:00,
2013-03-15 06:40:00,18.1,9.6,29.89,NNW,340,0.0,6.0,69,0.00,,,0.00,Wunderground v.1.13,2013-03-15 10:40:00,
2013-03-15 06:45:00,18.0,9.5,29.89,NNW,340,0.0,6.0,69,0.00,,,0.00,Wunderground v.1.13,2013-03-15 10:45:00,
2013-03-15 06:50:00,18.0,9.5,29.88,NNW,340,0.0,6.0,69,0.00,,,0.00,Wunderground v.1.13,2013-03-15 10:50:00,
2013-03-15 06:55:00,17.9,9.4,29.88,NNW,340,0.0,6.0,69,0.00,,,0.00,Wunderground v.1.13,2013-03-15 10:55:00,
2013-03-15 07:05:00,17.8,9.7,29.89,NNW,340,0.0,6.0,70,0.00,,,0.00,Wunderground v.1.13,2013-03-15 11:05:00,
2013-03-15 07:10:00,17.7,9.6,29.89,NNW,341,0.0,6.0,70,0.00,,,0.00,Wunderground v.1.13,2013-03-15 11:10:00,
2013-03-15 07:20:00,17.6,9.2,29.89,West,269,0.0,6.0,69,0.00,,,0.00,Wunderground v.1.13,2013-03-15 11:20:00,
2013-03-15 07:25:00,17.5,9.1,29.89,West,269,1.0,1.0,69,0.00,,,0.00,Wunderground v.1.13,2013-03-15 11:25:00,
2013-03-15 07:30:00,17.4,9.3,29.89,West,270,1.0,1.0,70,0.00,,,0.00,Wunderground v.1.13,2013-03-15 11:30:00,
2013-03-15 07:35:00,17.4,9.0,29.89,West,270,0.0,6.0,69,0.00,,,0.00,Wunderground v.1.13,2013-03-15 11:35:00,
2013-03-15 07:45:00,17.4,9.3,29.89,West,272,0.0,6.0,70,0.00,,,0.00,Wunderground v.1.13,2013-03-15 11:45:00,
2013-03-15 07:50:00,17.4,9.3,29.89,West,273,0.0,6.0,70,0.00,,,0.00,Wunderground v.1.13,2013-03-15 11:50:00,
2013-03-15 07:55:00,17.5,9.4,29.89,West,269,1.0,1.0,70,0.00,,,0.00,Wunderground v.1.13,2013-03-15 11:55:00,
2013-03-15 08:00:00,17.6,9.5,29.89,West,269,0.0,6.0,70,0.00,,,0.00,Wunderground v.1.13,2013-03-15 12:00:00,
2013-03-15 08:10:00,17.8,9.7,29.89,West,277,0.0,6.0,70,0.00,,,0.00,Wunderground v.1.13,2013-03-15 12:10:00,
2013-03-15 08:15:00,18.0,9.9,29.89,WSW,242,0.0,6.0,70,0.00,,,0.00,Wunderground v.1.13,2013-03-15 12:15:00,
2013-03-15 08:20:00,18.2,9.7,29.89,West,270,0.0,6.0,69,0.00,,,0.00,Wunderground v.1.13,2013-03-15 12:20:00,
2013-03-15 08:30:00,18.7,10.2,29.89,West,270,0.0,3.0,69,0.00,,,0.00,Wunderground v.1.13,2013-03-15 12:30:00,
2013-03-15 08:35:00,19.0,10.2,29.89,NNW,338,1.0,5.0,68,0.00,,,0.00,Wunderground v.1.13,2013-03-15 12:35:00,
2013-03-15 08:40:00,19.2,10.4,29.89,NNW,338,0.0,4.0,68,0.00,,,0.00,Wunderground v.1.13,2013-03-15 12:40:00,
2013-03-15 08:45:00,19.5,10.3,29.89,North,0,1.0,4.0,67,0.00,,,0.00,Wunderground v.1.13,2013-03-15 12:45:00,
2013-03-15 08:50:00,19.8,10.6,29.89,North,0,0.0,2.0,67,0.00,,,0.00,Wunderground v.1.13,2013-03-15 12:50:00,
2013-03-15 09:00:00,20.0,10.8,29.89,North,0,0.0,1.0,67,0.00,,,0.00,Wunderground v.1.13,2013-03-15 13:00:00,
2013-03-15 09:10:00,21.1,10.5,29.89,NNW,344,2.0,9.0,63,0.00,,,0.00,Wunderground v.1.13,2013-03-15 13:10:00,
2013-03-15 09:15:00,21.5,10.8,29.89,NNW,338,1.0,3.0,63,0.00,,,0.00,Wunderground v.1.13,2013-03-15 13:15:00,
2013-03-15 09:20:00,21.8,10.8,29.88,North,355,1.0,1.0,62,0.00,,,0.00,Wunderground v.1.13,2013-03-15 13:20:00,
2013-03-15 09:30:00,22.7,11.3,29.88,NNW,345,1.0,1.0,61,0.00,,,0.00,Wunderground v.1.13,2013-03-15 13:30:00,
2013-03-15 09:35:00,23.1,10.9,29.88,NNW,330,1.0,1.0,59,0.00,,,0.00,Wunderground v.1.13,2013-03-15 13:35:00,
2013-03-15 09:40:00,23.6,11.0,29.88,NNW,338,1.0,1.0,58,0.00,,,0.00,Wunderground v.1.13,2013-03-15 13:40:00,
2013-03-15 09:45:00,24.2,11.1,29.88,North,349,1.0,4.0,57,0.00,,,0.00,Wunderground v.1.13,2013-03-15 13:45:00,
2013-03-15 09:55:00,25.6,11.7,29.88,NNW,340,2.0,2.0,55,0.00,,,0.00,Wunderground v.1.13,2013-03-15 13:55:00,
2013-03-15 10:00:00,26.0,11.2,29.87,NNW,338,1.0,1.0,53,0.00,,,0.00,Wunderground v.1.13,2013-03-15 14:00:00,
2013-03-15 10:05:00,26.2,10.9,29.87,NW,322,1.0,1.0,52,0.00,,,0.00,Wunderground v.1.13,2013-03-15 14:05:00,
2013-03-15 10:15:00,26.9,10.7,29.87,NNW,344,1.0,1.0,50,0.00,,,0.00,Wunderground v.1.13,2013-03-15 14:15:00,
2013-03-15 10:20:00,27.0,11.3,29.87,West,261,1.0,1.0,51,0.00,,,0.00,Wunderground v.1.13,2013-03-15 14:20:00,
2013-03-15 10:25:00,27.3,11.5,29.87,NW,304,1.0,1.0,51,0.00,,,0.00,Wunderground v.1.13,2013-03-15 14:25:00,
2013-03-15 10:35:00,27.9,11.2,29.86,WNW,293,2.0,2.0,49,0.00,,,0.00,Wunderground v.1.13,2013-03-15 14:35:00,
2013-03-15 10:40:00,28.2,11.5,29.86,WNW,298,2.0,2.0,49,0.00,,,0.00,Wunderground v.1.13,2013-03-15 14:40:00,
2013-03-15 10:45:00,28.5,10.8,29.86,WSW,251,2.0,2.0,47,0.00,,,0.00,Wunderground v.1.13,2013-03-15 14:45:00,
2013-03-15 10:55:00,29.1,10.9,29.85,WNW,295,1.0,2.0,46,0.00,,,0.00,Wunderground v.1.13,2013-03-15 14:55:00,
2013-03-15 11:00:00,29.5,11.2,29.86,NNW,348,1.0,4.0,46,0.00,,,0.00,Wunderground v.1.13,2013-03-15 15:00:00,
2013-03-15 11:05:00,29.9,11.6,29.85,SW,226,1.0,5.0,46,0.00,,,0.00,Wunderground v.1.13,2013-03-15 15:05:00,
2013-03-15 11:15:00,30.0,11.7,29.84,NNW,347,2.0,3.0,46,0.00,,,0.00,Wunderground v.1.13,2013-03-15 15:15:00,
2013-03-15 11:20:00,30.5,10.6,29.84,SW,225,2.0,2.0,43,0.00,,,0.00,Wunderground v.1.13,2013-03-15 15:20:00,
2013-03-15 11:25:00,30.6,11.2,29.84,SW,236,2.0,2.0,44,0.00,,,0.00,Wunderground v.1.13,2013-03-15 15:25:00,
2013-03-15 11:35:00,32.0,10.9,29.84,North,350,2.0,2.0,41,0.00,,,0.00,Wunderground v.1.13,2013-03-15 15:35:00,
2013-03-15 11:40:00,32.0,9.8,29.83,NW,313,3.0,3.0,39,0.00,,,0.00,Wunderground v.1.13,2013-03-15 15:40:00,
2013-03-15 11:45:00,32.3,10.6,29.83,West,277,2.0,2.0,40,0.00,,,0.00,Wunderground v.1.13,2013-03-15 15:45:00,
2013-03-15 11:55:00,32.7,10.4,29.82,West,267,2.0,2.0,39,0.00,,,0.00,Wunderground v.1.13,2013-03-15 15:55:00,
2013-03-15 12:00:00,33.2,11.5,29.82,SW,229,2.0,6.0,40,0.00,,,0.00,Wunderground v.1.13,2013-03-15 16:00:00,
2013-03-15 12:05:00,33.1,9.0,29.82,SW,234,4.0,6.0,36,0.00,,,0.00,Wunderground v.1.13,2013-03-15 16:05:00,
2013-03-15 12:10:00,33.8,10.2,29.82,SW,232,4.0,4.0,37,0.00,,,0.00,Wunderground v.1.13,2013-03-15 16:10:00,
2013-03-15 12:20:00,34.3,10.1,29.81,SW,227,3.0,3.0,36,0.00,,,0.00,Wunderground v.1.13,2013-03-15 16:20:00,
2013-03-15 12:25:00,34.3,10.1,29.81,WSW,244,3.0,3.0,36,0.00,,,0.00,Wunderground v.1.13,2013-03-15 16:25:00,
2013-03-15 12:30:00,34.2,10.0,29.81,SW,236,3.0,4.0,36,0.00,,,0.00,Wunderground v.1.13,2013-03-15 16:30:00,
2013-03-15 12:40:00,35.7,11.9,29.80,NW,321,1.0,1.0,37,0.00,,,0.00,Wunderground v.1.13,2013-03-15 16:40:00,
2013-03-15 12:45:00,35.9,12.1,29.80,WSW,251,1.0,2.0,37,0.00,,,0.00,Wunderground v.1.13,2013-03-15 16:45:00,
2013-03-15 12:50:00,35.9,11.5,29.79,SW,216,2.0,9.0,36,0.00,,,0.00,Wunderground v.1.13,2013-03-15 16:50:00,
2013-03-15 13:00:00,35.5,11.1,29.79,SW,214,5.0,5.0,36,0.00,,,0.00,Wunderground v.1.13,2013-03-15 17:00:00,
2013-03-15 13:05:00,36.2,12.4,29.78,West,271,4.0,4.0,37,0.00,,,0.00,Wunderground v.1.13,2013-03-15 17:05:00,
2013-03-15 13:10:00,36.3,13.1,29.78,SW,225,3.0,7.0,38,0.00,,,0.00,Wunderground v.1.13,2013-03-15 17:10:00,
2013-03-15 13:20:00,36.0,12.2,29.77,South,190,4.0,4.0,37,0.00,,,0.00,Wunderground v.1.13,2013-03-15 17:20:00,
2013-03-15 13:25:00,35.7,11.3,29.77,West,269,3.0,3.0,36,0.00,,,0.00,Wunderground v.1.13,2013-03-15 17:25:00,
2013-03-15 13:30:00,35.8,10.8,29.77,SW,217,4.0,5.0,35,0.00,,,0.00,Wunderground v.1.13,2013-03-15 17:30:00,
2013-03-15 13:35:00,35.8,10.8,29.77,SSW,207,4.0,6.0,35,0.00,,,0.00,Wunderground v.1.13,2013-03-15 17:35:00,
2013-03-15 13:45:00,35.5,12.4,29.76,WSW,240,4.0,4.0,38,0.00,,,0.00,Wunderground v.1.13,2013-03-15 17:45:00,
2013-03-15 13:50:00,35.9,12.7,29.75,WNW,288,3.0,3.0,38,0.00,,,0.00,Wunderground v.1.13,2013-03-15 17:50:00,
2013-03-15 14:00:00,36.4,13.2,29.75,SW,233,3.0,3.0,38,0.00,,,0.00,Wunderground v.1.13,2013-03-15 18:00:00,
2013-03-15 14:05:00,36.7,12.2,29.74,WSW,248,3.0,6.0,36,0.00,,,0.00,Wunderground v.1.13,2013-03-15 18:05:00,
2013-03-15 14:10:00,36.5,12.0,29.73,SW,225,4.0,5.0,36,0.00,,,0.00,Wunderground v.1.13,2013-03-15 18:10:00,
2013-03-15 14:15:00,37.0,14.3,29.73,SSW,209,4.0,7.0,39,0.00,,,0.00,Wunderground v.1.13,2013-03-15 18:15:00,
2013-03-15 14:25:00,38.0,14.0,29.73,SW,228,5.0,5.0,37,0.00,,,0.00,Wunderground v.1.13,2013-03-15 18:25:00,
2013-03-15 14:30:00,38.4,15.0,29.73,WSW,246,5.0,7.0,38,0.00,,,0.00,Wunderground v.1.13,2013-03-15 18:30:00,
2013-03-15 14:35:00,38.5,15.7,29.73,WSW,253,4.0,4.0,39,0.00,,,0.00,Wunderground v.1.13,2013-03-15 18:35:00,
2013-03-15 14:40:00,38.6,15.7,29.72,WSW,245,5.0,5.0,39,0.00,,,0.00,Wunderground v.1.13,2013-03-15 18:40:00,
2013-03-15 14:50:00,39.4,17.6,29.71,WSW,257,4.0,5.0,41,0.00,,,0.00,Wunderground v.1.13,2013-03-15 18:50:00,
2013-03-15 14:55:00,38.8,17.6,29.71,North,355,5.0,5.0,42,0.00,,,0.00,Wunderground v.1.13,2013-03-15 18:55:00,
2013-03-15 15:05:00,38.9,16.0,29.71,SW,225,4.0,4.0,39,0.00,,,0.00,Wunderground v.1.13,2013-03-15 19:05:00,
2013-03-15 15:10:00,38.8,15.9,29.71,South,184,4.0,6.0,39,0.00,,,0.00,Wunderground v.1.13,2013-03-15 19:10:00,
2013-03-15 15:15:00,38.4,16.7,29.71,West,260,4.0,6.0,41,0.00,,,0.00,Wunderground v.1.13,2013-03-15 19:15:00,
2013-03-15 15:20:00,38.8,18.7,29.71,WNW,302,5.0,5.0,44,0.00,,,0.00,Wunderground v.1.13,2013-03-15 19:20:00,
2013-03-15 15:30:00,38.8,17.6,29.71,WSW,252,7.0,7.0,42,0.00,,,0.00,Wunderground v.1.13,2013-03-15 19:30:00,
2013-03-15 15:35:00,39.1,17.4,29.71,SW,217,6.0,6.0,41,0.00,,,0.00,Wunderground v.1.13,2013-03-15 19:35:00,
2013-03-15 15:40:00,39.1,17.4,29.70,SSW,209,6.0,6.0,41,0.00,,,0.00,Wunderground v.1.13,2013-03-15 19:40:00,
2013-03-15 15:50:00,39.6,20.0,29.70,WNW,284,3.0,4.0,45,0.00,,,0.00,Wunderground v.1.13,2013-03-15 19:50:00,
2013-03-15 15:55:00,39.9,19.2,29.70,WNW,291,3.0,4.0,43,0.00,,,0.00,Wunderground v.1.13,2013-03-15 19:55:00,
2013-03-15 16:00:00,40.0,19.3,29.69,SW,227,4.0,4.0,43,0.00,,,0.00,Wunderground v.1.13,2013-03-15 20:00:00,
2013-03-15 16:10:00,39.8,18.5,29.68,SW,232,5.0,5.0,42,0.00,,,0.00,Wunderground v.1.13,2013-03-15 20:10:00,
2013-03-15 16:15:00,40.3,20.1,29.68,SW,229,4.0,4.0,44,0.00,,,0.00,Wunderground v.1.13,2013-03-15 20:15:00,
2013-03-15 16:20:00,40.4,19.1,29.68,SW,226,4.0,9.0,42,0.00,,,0.00,Wunderground v.1.13,2013-03-15 20:20:00,
2013-03-15 16:30:00,40.1,19.9,29.68,SW,221,5.0,5.0,44,0.00,,,0.00,Wunderground v.1.13,2013-03-15 20:30:00,
2013-03-15 16:35:00,39.9,19.7,29.67,WSW,257,5.0,6.0,44,0.00,,,0.00,Wunderground v.1.13,2013-03-15 20:35:00,
2013-03-15 16:40:00,40.0,20.9,29.67,NW,316,3.0,3.0,46,0.00,,,0.00,Wunderground v.1.13,2013-03-15 20:40:00,
2013-03-15 16:45:00,39.9,20.3,29.67,SW,218,4.0,4.0,45,0.00,,,0.00,Wunderground v.1.13,2013-03-15 20:45:00,
2013-03-15 16:55:00,39.7,20.6,29.67,WSW,252,4.0,13.0,46,0.00,,,0.00,Wunderground v.1.13,2013-03-15 20:55:00,
2013-03-15 17:00:00,39.3,20.7,29.67,SSW,207,6.0,10.0,47,0.00,,,0.00,Wunderground v.1.13,2013-03-15 21:00:00,
2013-03-15 17:05:00,38.8,20.8,29.67,WSW,254,8.0,10.0,48,0.00,,,0.00,Wunderground v.1.13,2013-03-15 21:05:00,
2013-03-15 17:15:00,38.4,23.2,29.67,SW,214,5.0,14.0,54,0.00,,,0.00,Wunderground v.1.13,2013-03-15 21:15:00,
2013-03-15 17:20:00,38.1,23.8,29.67,SW,226,5.0,5.0,56,0.00,,,0.00,Wunderground v.1.13,2013-03-15 21:20:00,
2013-03-15 17:30:00,37.6,24.6,29.67,West,281,4.0,4.0,59,0.00,,,0.00,Wunderground v.1.13,2013-03-15 21:30:00,
2013-03-15 17:35:00,37.3,24.7,29.67,West,259,4.0,4.0,60,0.00,,,0.00,Wunderground v.1.13,2013-03-15 21:35:00,
2013-03-15 17:40:00,37.0,24.4,29.67,WSW,252,5.0,11.0,60,0.00,,,0.00,Wunderground v.1.13,2013-03-15 21:40:00,
2013-03-15 17:45:00,36.6,24.8,29.67,WSW,252,6.0,14.0,62,0.00,,,0.00,Wunderground v.1.13,2013-03-15 21:45:00,
2013-03-15 17:55:00,36.2,25.2,29.67,West,260,6.0,6.0,64,0.00,,,0.00,Wunderground v.1.13,2013-03-15 21:55:00,
2013-03-15 18:00:00,36.1,25.1,29.67,West,267,6.0,6.0,64,0.00,,,0.00,Wunderground v.1.13,2013-03-15 22:00:00,
2013-03-15 18:05:00,36.0,25.0,29.66,SW,230,6.0,6.0,64,0.00,,,0.00,Wunderground v.1.13,2013-03-15 22:05:00,
2013-03-15 18:15:00,35.9,25.3,29.67,West,273,5.0,5.0,65,0.00,,,0.00,Wunderground v.1.13,2013-03-15 22:15:00,
2013-03-15 18:20:00,35.9,25.3,29.67,West,281,5.0,5.0,65,0.00,,,0.00,Wunderground v.1.13,2013-03-15 22:20:00,
2013-03-15 18:25:00,35.9,25.3,29.67,SW,227,5.0,14.0,65,0.00,,,0.00,Wunderground v.1.13,2013-03-15 22:25:00,
2013-03-15 18:35:00,35.9,25.3,29.67,WSW,244,5.0,5.0,65,0.00,,,0.00,Wunderground v.1.13,2013-03-15 22:35:00,
2013-03-15 18:40:00,35.9,25.3,29.67,SW,225,5.0,11.0,65,0.00,,,0.00,Wunderground v.1.13,2013-03-15 22:40:00,
2013-03-15 18:45:00,35.9,25.3,29.68,WSW,257,5.0,5.0,65,0.00,,,0.00,Wunderground v.1.13,2013-03-15 22:45:00,
2013-03-15 18:55:00,35.9,25.3,29.68,West,275,4.0,4.0,65,0.00,,,0.00,Wunderground v.1.13,2013-03-15 22:55:00,
2013-03-15 19:00:00,35.9,25.3,29.67,West,271,4.0,4.0,65,0.00,,,0.00,Wunderground v.1.13,2013-03-15 23:00:00,
2013-03-15 19:05:00,35.9,25.6,29.68,SW,232,3.0,3.0,66,0.00,,,0.00,Wunderground v.1.13,2013-03-15 23:05:00,
2013-03-15 19:10:00,35.9,25.6,29.68,WSW,246,3.0,3.0,66,0.00,,,0.00,Wunderground v.1.13,2013-03-15 23:10:00,
2013-03-15 19:20:00,35.9,25.6,29.68,WSW,241,2.0,2.0,66,0.00,,,0.00,Wunderground v.1.13,2013-03-15 23:20:00,
2013-03-15 19:25:00,35.9,26.0,29.68,WSW,249,3.0,3.0,67,0.00,,,0.00,Wunderground v.1.13,2013-03-15 23:25:00,
2013-03-15 19:30:00,35.9,26.4,29.68,WSW,240,4.0,4.0,68,0.00,,,0.00,Wunderground v.1.13,2013-03-15 23:30:00,
2013-03-15 19:40:00,35.8,26.3,29.68,WSW,240,2.0,5.0,68,0.00,,,0.00,Wunderground v.1.13,2013-03-15 23:40:00,
2013-03-15 19:45:00,35.8,26.3,29.68,SSW,201,4.0,4.0,68,0.00,,,0.00,Wunderground v.1.13,2013-03-15 23:45:00,
2013-03-15 19:50:00,35.7,26.5,29.68,SSW,205,5.0,5.0,69,0.00,,,0.00,Wunderground v.1.13,2013-03-15 23:50:00,
2013-03-15 20:00:00,35.7,26.9,29.68,WNW,285,4.0,4.0,70,0.00,,,0.00,Wunderground v.1.13,2013-03-16 00:00:00,
2013-03-15 20:05:00,35.7,26.9,29.68,WSW,254,4.0,4.0,70,0.00,,,0.00,Wunderground v.1.13,2013-03-16 00:05:00,
2013-03-15 20:10:00,35.6,27.1,29.69,WSW,245,2.0,2.0,71,0.00,,,0.00,Wunderground v.1.13,2013-03-16 00:10:00,
2013-03-15 20:20:00,35.3,27.8,29.69,West,261,3.0,5.0,74,0.00,,,0.00,Wunderground v.1.13,2013-03-16 00:20:00,
2013-03-15 20:25:00,35.1,27.6,29.68,WSW,238,3.0,3.0,74,0.00,,,0.00,Wunderground v.1.13,2013-03-16 00:25:00,
2013-03-15 20:30:00,35.0,27.5,29.69,WSW,238,4.0,6.0,74,0.00,,,0.00,Wunderground v.1.13,2013-03-16 00:30:00,
2013-03-15 20:40:00,34.8,27.0,29.68,SW,233,4.0,4.0,73,0.00,,,0.00,Wunderground v.1.13,2013-03-16 00:40:00,
2013-03-15 20:45:00,34.7,26.9,29.69,WSW,240,3.0,8.0,73,0.00,,,0.00,Wunderground v.1.13,2013-03-16 00:45:00,
2013-03-15 20:50:00,34.7,26.9,29.69,WNW,300,4.0,4.0,73,0.00,,,0.00,Wunderground v.1.13,2013-03-16 00:50:00,
2013-03-15 20:55:00,34.7,26.9,29.68,WSW,250,4.0,4.0,73,0.00,,,0.00,Wunderground v.1.13,2013-03-16 00:55:00,
2013-03-15 21:05:00,34.5,27.1,29.68,SW,222,5.0,5.0,74,0.00,,,0.00,Wunderground v.1.13,2013-03-16 01:05:00,
2013-03-15 21:10:00,34.4,27.3,29.68,WSW,251,5.0,5.0,75,0.00,,,0.00,Wunderground v.1.13,2013-03-16 01:10:00,
2013-03-15 21:20:00,34.1,27.3,29.68,West,279,3.0,3.0,76,0.00,,,0.00,Wunderground v.1.13,2013-03-16 01:20:00,
2013-03-15 21:25:00,33.9,27.1,29.68,West,272,2.0,2.0,76,0.00,,,0.00,Wunderground v.1.13,2013-03-16 01:25:00,
2013-03-15 21:30:00,33.8,27.4,29.68,SW,236,2.0,5.0,77,0.00,,,0.00,Wunderground v.1.13,2013-03-16 01:30:00,
2013-03-15 21:40:00,33.6,27.2,29.68,West,267,3.0,3.0,77,0.00,,,0.00,Wunderground v.1.13,2013-03-16 01:40:00,
2013-03-15 21:45:00,33.5,27.4,29.68,SSW,209,4.0,10.0,78,0.00,,,0.00,Wunderground v.1.13,2013-03-16 01:45:00,
2013-03-15 21:50:00,33.3,27.2,29.68,SW,234,4.0,6.0,78,0.00,,,0.00,Wunderground v.1.13,2013-03-16 01:50:00,
2013-03-15 22:00:00,33.2,27.1,29.68,WSW,253,2.0,4.0,78,0.00,,,0.00,Wunderground v.1.13,2013-03-16 02:00:00,
2013-03-15 22:05:00,33.1,27.0,29.69,WSW,244,3.0,3.0,78,0.00,,,0.00,Wunderground v.1.13,2013-03-16 02:05:00,
2013-03-15 22:10:00,33.0,26.9,29.69,NW,306,3.0,3.0,78,0.00,,,0.00,Wunderground v.1.13,2013-03-16 02:10:00,
2013-03-15 22:15:00,32.9,26.8,29.69,West,273,2.0,2.0,78,0.00,,,0.00,Wunderground v.1.13,2013-03-16 02:15:00,
2013-03-15 22:25:00,32.8,27.0,29.69,WNW,302,2.0,2.0,79,0.00,,,0.00,Wunderground v.1.13,2013-03-16 02:25:00,
2013-03-15 22:30:00,32.8,27.3,29.69,West,259,2.0,2.0,80,0.00,,,0.00,Wunderground v.1.13,2013-03-16 02:30:00,
2013-03-15 22:35:00,32.8,27.3,29.69,West,269,1.0,1.0,80,0.00,,,0.00,Wunderground v.1.13,2013-03-16 02:35:00,
2013-03-15 22:45:00,32.6,27.4,29.70,SW,229,1.0,5.0,81,0.00,,,0.00,Wunderground v.1.13,2013-03-16 02:45:00,
2013-03-15 22:50:00,32.5,27.3,29.69,NW,317,2.0,2.0,81,0.00,,,0.00,Wunderground v.1.13,2013-03-16 02:50:00,
2013-03-15 22:55:00,32.5,27.3,29.69,WSW,257,2.0,2.0,81,0.00,,,0.00,Wunderground v.1.13,2013-03-16 02:55:00,
2013-03-15 23:05:00,32.3,27.4,29.70,WSW,246,1.0,4.0,82,0.00,,,0.00,Wunderground v.1.13,2013-03-16 03:05:00,
2013-03-15 23:10:00,32.3,27.4,29.69,SW,229,2.0,2.0,82,0.00,,,0.00,Wunderground v.1.13,2013-03-16 03:10:00,
2013-03-15 23:15:00,32.2,27.3,29.70,West,272,1.0,1.0,82,0.00,,,0.00,Wunderground v.1.13,2013-03-16 03:15:00,
2013-03-15 23:20:00,32.0,27.4,29.70,WSW,254,1.0,3.0,83,0.00,,,0.00,Wunderground v.1.13,2013-03-16 03:20:00,
2013-03-15 23:30:00,31.9,27.3,29.70,NW,304,2.0,2.0,83,0.00,,,0.00,Wunderground v.1.13,2013-03-16 03:30:00,
2013-03-15 23:35:00,31.8,27.2,29.70,NNW,346,1.0,3.0,83,0.00,,,0.00,Wunderground v.1.13,2013-03-16 03:35:00,
2013-03-15 23:40:00,31.7,27.1,29.70,West,273,1.0,1.0,83,0.00,,,0.00,Wunderground v.1.13,2013-03-16 03:40:00,
2013-03-15 23:50:00,31.7,27.1,29.70,WSW,240,2.0,2.0,83,0.00,,,0.00,Wunderground v.1.13,2013-03-16 03:50:00,
2013-03-15 23:55:00,31.6,27.3,29.70,West,271,2.0,4.0,84,0.00,,,0.00,Wunderground v.1.13,2013-03-16 03:55:00,